Vorticity
3 3 3 4 4 3 3 2 2 4 5 4 3 3 4 4 5 6 7 7 7 8 6 4 6 4 5 5 5 12 8 3 7 5 4 3 7 6 4 5 5 6 7 7 7 6 4 4 3 3 4 5 5 5 6 6 8 8 8 7 7 7 6 7 7 6 5 4 4 4 4 4 4 4 6 7 7 7 7 7 6 6 6 5 5 4 4 5 5 6 6 7 7 8 7 7 7
10 7 3 3 5 3 3 3 2 2 3 6 4 3 4 4 5 7 7 6 7 8 6 3 5 5 5 6 4 10 8 1 4 6 4 4 6 6 5 4 4 7 7 6 5 5 5 3 3 4 3 3 5 6 6 7 8 8 7 8 7 6 7 7 6 5 4 4 4 4 4 4 4 6 7 7 7 7 7 7 6 5 5 4 4 5 5 6 7 7 7 7 7 7 6 6 6
14 8 2 3 5 4 3 3 2 2 3 5 4 4 3 4 6 6 7 6 7 6 7 5 4 5 4 5 3 8 10 2 1 4 4 4 5 5 6 6 5 6 7 7 5 5 4 3 3 4 2 3 5 6 6 7 8 8 6 6 6 6 6 6 5 5 4 4 4 4 4 5 6 7 7 7 8 7 6 6 5 5 4 5 5 6 7 7 7 7 7 6 6 5 5 5 4
9 5 1 3 5 5 3 3 4 4 4 4 2 4 4 5 7 5 7 7 7 6 7 6 3 4 2 4 4 6 12 8 1 1 3 2 3 4 3 6 6 6 6 6 7 6 4 3 3 3 2 3 5 6 6 6 6 7 6 6 5 5 5 5 5 4 5 4 4 4 5 6 7 7 8 8 7 7 6 5 4 5 5 5 6 6 7 7 7 6 6 5 5 4 4 4 4
5 3 1 2 4 6 5 3 3 4 5 5 2 3 4 4 8 7 8 7 7 6 6 6 3 3 2 4 5 5 9 13 6 -2 1 2 2 3 1 3 5 6 7 6 6 5 4 3 3 2 1 3 5 6 6 5 5 6 6 7 6 5 4 4 4 5 5 5 5 6 7 7 8 8 8 7 7 6 5 5 5 5 6 6 6 6 6 6 6 5 5 5 4 4 4 4 4
4 2 0 2 4 4 6 4 2 3 2 4 3 3 4 4 7 9 8 7 7 7 5 6 4 3 3 4 5 5 5 11 11 1 -1 -0 1 2 0 1 2 4 5 6 7 6 5 4 3 2 1 3 6 6 7 6 4 5 6 6 5 4 4 4 4 5 5 5 6 7 7 8 7 7 7 6 6 5 5 5 5 6 6 7 6 6 6 5 5 5 4 4 4 4 4 3 4
4 3 2 3 4 4 3 6 5 4 3 2 2 4 5 4 6 8 8 6 7 7 5 5 5 3 4 5 4 6 4 6 11 9 5 -1 0 1 -1 -0 1 2 2 4 7 7 7 5 4 2 1 2 6 6 6 7 3 3 6 5 4 4 4 5 5 5 6 6 7 7 8 7 7 6 6 6 5 5 5 5 6 6 7 6 6 6 5 5 4 4 4 4 4 3 4 3 3
4 3 4 4 3 4 1 4 7 6 6 5 2 3 4 4 6 7 7 5 6 7 6 5 5 4 5 5 3 5 5 5 7 10 11 7 3 1 0 -1 -1 2 1 2 6 7 7 8 7 4 3 2 6 6 5 7 3 2 5 5 3 4 5 5 5 5 6 7 7 8 8 7 6 6 6 6 5 5 6 6 6 7 6 6 6 5 5 4 4 4 4 4 4 4 4 4 3
5 4 4 5 3 4 2 1 5 5 5 5 3 3 3 4 5 7 7 5 5 7 8 5 4 4 3 4 4 5 5 5 5 5 9 10 10 7 4 1 -1 2 1 1 4 6 6 8 10 8 5 4 6 6 5 7 4 1 5 5 3 4 4 4 4 5 6 7 7 8 7 6 6 6 6 5 5 6 6 7 7 6 6 5 5 5 4 4 4 4 4 4 4 4 3 3 3
6 6 4 5 3 4 4 2 3 4 4 5 3 3 3 4 4 5 7 6 5 7 9 7 4 4 3 3 4 4 4 5 4 4 6 7 11 11 10 6 3 4 3 1 3 6 6 7 11 11 8 5 6 7 4 6 4 2 5 4 3 4 4 4 5 6 6 7 7 7 6 6 6 5 5 5 6 6 7 7 6 6 5 5 4 4 4 4 4 3 3 3 3 3 3 4 3
8 7 5 5 3 1 4 3 1 2 4 4 3 3 3 4 4 4 7 7 6 7 10 9 6 5 3 3 4 4 4 4 4 4 5 7 8 10 10 9 6 6 5 3 3 6 6 6 10 12 10 7 7 7 4 5 4 2 4 4 2 4 5 7 7 6 7 7 7 6 6 5 5 5 5 6 7 6 6 6 5 5 4 4 4 4 4 4 3 3 3 3 3 4 3 4 4
8 8 5 5 3 0 3 4 -0 0 4 5 4 3 4 3 4 5 6 8 6 6 8 9 7 6 4 3 3 3 4 3 3 3 3 5 7 8 9 8 7 6 6 5 5 7 6 5 8 11 12 9 8 8 5 5 5 2 4 3 3 6 8 9 7 7 6 7 7 6 6 5 5 5 6 7 6 6 5 5 5 4 4 4 3 3 3 3 3 3 4 4 4 4 4 4 4
5 8 5 3 3 1 2 5 0 1 2 3 5 3 4 4 4 6 6 6 7 7 8 8 7 8 6 4 3 3 4 3 2 3 3 3 4 7 8 8 8 7 7 7 7 8 5 4 6 10 11 10 8 7 5 5 4 2 4 4 5 8 10 9 7 6 6 6 6 6 5 5 5 6 7 6 6 5 5 4 4 4 4 3 3 3 3 3 4 4 4 4 4 4 4 5 5
4 6 7 4 2 2 3 4 1 3 4 1 5 4 4 5 4 5 5 6 7 7 8 8 7 8 9 5 4 3 3 4 2 3 3 3 3 4 8 8 7 7 7 8 8 7 5 4 6 7 9 9 9 7 5 5 4 2 3 5 7 9 9 7 6 6 5 6 5 5 5 5 6 6 6 6 5 4 4 4 4 4 3 3 3 3 4 4 4 4 4 4 5 5 5 5 5
7 4 4 6 5 3 3 4 1 4 5 2 5 4 3 5 5 5 5 6 7 8 7 7 7 7 10 8 5 4 3 4 3 3 4 3 3 3 6 7 6 5 6 7 6 6 4 3 5 7 7 8 8 7 5 5 4 3 4 6 8 8 8 6 6 5 5 5 5 5 6 6 6 6 5 4 4 4 3 4 3 3 3 3 4 4 4 4 4 4 5 5 5 5 6 5 5
9 5 -0 7 8 4 3 3 3 4 3 3 6 5 4 5 5 5 5 5 6 8 8 6 7 6 8 10 7 5 5 4 3 3 4 3 2 2 4 6 6 4 4 5 5 5 4 3 5 6 7 7 8 8 5 5 4 3 5 7 8 7 6 6 5 5 5 5 5 6 5 6 5 4 4 3 3 3 3 4 4 4 4 4 4 4 4 4 5 5 5 6 6 6 6 5 5
3 6 -0 6 8 3 5 2 3 4 -0 4 8 4 4 5 5 6 4 6 6 7 9 6 6 7 8 9 8 7 6 5 4 3 4 3 2 2 3 4 6 5 2 4 4 4 4 4 4 6 7 7 8 8 6 5 5 5 6 7 7 6 6 5 4 4 4 5 5 5 5 5 4 3 3 3 3 3 3 3 4 4 4 4 4 5 5 5 5 6 6 6 6 6 5 6 5
-1 7 2 5 7 3 6 4 6 4 -4 3 7 3 4 4 4 6 5 5 6 6 8 7 6 7 8 8 7 7 7 7 6 3 3 4 3 2 2 4 6 7 4 3 4 4 4 4 5 6 7 7 7 7 6 5 5 6 7 7 7 6 5 4 4 4 4 5 4 4 4 4 3 3 3 3 3 3 4 4 4 4 4 4 5 5 5 5 6 6 6 6 6 6 5 6 5
-4 8 6 3 7 4 6 5 7 7 -3 -1 4 4 4 5 5 5 6 5 6 7 7 7 7 8 7 6 7 7 6 8 7 5 3 3 4 3 3 4 5 7 7 5 3 4 4 4 5 6 7 7 7 6 6 5 5 6 7 7 6 5 5 4 3 4 4 4 4 4 3 3 3 3 3 3 3 4 4 4 4 5 5 5 5 5 5 6 6 6 6 6 6 5 5 5 5
-12 5 8 2 7 5 7 6 6 9 4 -0 1 2 2 4 7 5 6 6 6 7 7 7 7 8 7 6 6 7 6 7 8 6 4 4 4 5 5 5 5 6 8 7 5 4 4 5 6 6 6 7 7 6 5 5 5 6 7 6 6 5 5 4 3 4 5 4 4 3 2 3 2 2 3 3 4 4 4 5 5 5 5 5 5 5 6 6 6 6 6 6 5 5 5 5 5
-9 5 10 2 7 7 7 6 5 8 5 4 2 0 1 2 6 6 5 7 7 6 7 7 6 7 7 7 6 7 7 7 8 7 5 5 4 5 6 6 5 5 6 8 7 4 4 5 6 6 7 7 8 7 5 6 6 5 6 5 5 5 5 4 4 4 4 4 3 3 3 3 2 3 4 4 5 5 5 5 5 5 5 5 6 6 6 6 6 6 5 5 5 4 5 5 4
-5 5 14 2 4 9 8 4 1 7 5 4 6 1 1 2 3 5 5 6 6 5 7 7 5 6 6 7 7 7 8 9 9 9 7 5 4 5 6 7 7 5 5 6 7 7 5 5 6 6 7 7 8 8 7 6 6 5 5 5 5 5 5 5 4 4 3 3 2 2 2 3 3 4 4 5 5 5 5 6 6 5 6 6 6 6 6 6 6 5 5 5 5 4 5 5 4
1 3 9 0 4 5 4 5 -1 4 6 2 5 4 2 1 3 4 4 7 5 4 7 6 5 6 6 6 6 6 7 9 10 10 9 8 5 4 4 6 7 6 5 6 8 9 8 6 5 7 8 7 7 8 8 7 6 5 5 5 5 5 6 5 4 4 3 2 2 2 3 3 4 4 5 6 5 6 6 6 6 6 6 6 6 6 5 6 6 5 5 4 4 4 4 4 4
10 3 -7 -11 8 8 -3 5 3 1 5 3 2 5 4 1 3 3 4 7 4 4 6 5 6 6 7 6 5 5 6 8 9 9 9 9 9 7 4 4 5 6 5 7 9 10 11 10 7 7 8 8 8 8 8 7 5 5 5 5 4 5 5 5 4 3 2 2 2 3 3 3 4 5 5 6 6 6 6 6 6 6 5 6 6 6 5 5 5 4 4 5 5 4 4 3 3
11 2 -13 -18 5 17 3 2 7 4 3 4 1 3 4 2 3 3 4 7 4 4 6 5 6 6 7 7 5 4 4 5 7 9 9 9 10 10 8 6 5 6 5 6 8 9 11 14 11 9 9 9 8 8 8 6 5 5 5 5 4 5 5 4 4 3 2 2 3 3 3 4 5 5 5 5 6 6 6 6 5 6 5 6 6 5 5 5 5 5 5 4 4 4 3 3 3
9 2 -8 -13 -2 13 10 2 6 9 4 5 2 0 4 3 3 3 5 8 3 3 6 5 5 6 6 7 7 5 3 4 5 8 9 8 8 9 9 8 8 7 7 7 7 7 9 14 15 11 10 10 9 8 7 6 5 4 5 5 4 4 4 4 3 2 2 3 3 3 4 5 5 6 6 5 6 6 6 6 6 6 6 6 6 5 5 5 5 5 4 4 4 4 3 3 3
9 9 2 0 0 3 8 5 4 7 5 6 4 -0 2 4 3 4 6 6 3 3 4 5 5 5 6 6 7 6 5 4 3 5 8 8 8 8 9 9 9 9 9 8 9 9 7 10 14 13 11 10 10 8 6 5 5 5 6 5 4 4 4 3 3 2 3 3 3 4 4 5 6 6 6 6 6 6 6 6 6 6 6 6 5 5 5 5 5 5 4 4 4 4 4 3 3
6 12 7 8 7 -0 4 7 3 4 5 6 6 1 0 4 5 4 6 5 3 4 3 5 5 5 5 6 7 6 6 5 3 3 5 7 8 8 9 9 10 10 9 7 8 11 9 9 10 11 11 9 8 7 5 5 5 6 6 5 4 4 4 3 3 3 2 3 3 4 5 5 6 6 6 6 6 6 6 6 6 6 6 6 6 5 5 5 5 5 4 4 4 3 3 3 3
5 10 9 11 12 1 0 8 7 3 3 7 5 1 2 7 7 3 3 5 5 4 4 5 5 6 5 5 7 6 6 7 4 3 3 5 7 7 8 8 9 10 9 7 7 9 11 11 9 8 9 8 8 6 6 6 5 6 5 4 3 3 3 3 3 2 2 3 4 4 5 6 6 6 6 6 6 6 6 6 6 7 6 6 5 5 5 5 5 5 5 4 4 3 3 3 3
1 9 12 10 13 5 -6 -1 10 5 -3 3 6 2 3 7 6 2 1 4 7 6 5 5 4 5 5 5 6 6 6 7 5 5 4 4 5 7 8 7 8 9 9 9 6 6 8 10 9 7 6 7 7 7 7 7 7 7 5 4 3 2 3 3 2 3 3 4 4 4 5 6 6 6 6 6 6 6 6 6 6 6 6 6 5 5 5 5 5 5 5 4 3 3 3 3 3
-2 5 13 11 12 5 -9 -11 1 9 -0 -2 6 2 -1 4 4 3 3 2 4 7 7 7 5 4 5 5 6 6 7 6 6 6 5 5 4 5 7 7 7 8 8 10 8 6 6 6 8 7 7 7 7 7 7 8 8 7 5 3 2 2 2 2 2 2 3 4 4 5 5 6 6 6 6 6 6 6 6 5 5 6 6 6 5 5 5 5 5 5 4 4 3 3 3 3 3
3 -1 4 13 13 -0 -2 -2 -4 8 9 2 6 3 -4 0 1 0 4 3 2 6 7 7 7 5 5 5 5 6 7 7 6 6 5 5 4 4 5 6 7 7 8 9 10 9 7 6 6 6 7 8 7 8 8 7 8 6 4 3 1 2 2 1 2 2 3 3 4 5 6 6 6 6 6 6 6 6 6 6 6 6 5 6 5 5 5 4 5 5 4 4 3 4 3 3 4
8 3 -2 6 13 5 5 6 -3 4 10 2 5 10 5 1 1 0 2 4 3 5 7 8 7 5 6 6 6 5 6 7 6 6 6 5 5 4 4 5 7 8 8 9 9 9 8 7 6 6 7 7 8 9 10 8 7 5 3 3 1 1 1 1 2 3 4 4 5 6 6 6 6 6 6 6 6 6 6 6 5 6 5 5 5 5 5 5 5 5 5 5 4 4 3 4 4
3 6 4 2 7 12 10 2 -0 8 10 -1 -3 9 11 2 2 3 -1 -1 1 5 8 9 9 7 6 6 6 6 5 6 7 6 6 6 5 6 4 4 6 7 8 9 9 9 8 8 7 7 7 8 8 8 10 9 7 4 2 2 1 0 1 2 3 3 4 6 6 6 6 6 6 6 6 5 6 6 6 6 5 5 5 5 5 5 5 5 5 5 4 5 5 4 4 4 4
-1 0 5 6 4 10 14 5 0 8 14 6 -2 2 6 3 4 2 -2 -2 -3 1 5 8 10 9 7 8 7 7 6 4 6 6 6 7 6 6 5 5 5 6 7 7 8 9 9 9 8 8 9 8 8 8 9 9 7 5 3 1 1 1 1 1 3 4 5 7 6 6 6 6 6 6 6 6 5 6 6 6 6 5 5 5 5 5 5 6 5 4 4 5 5 5 5 5 5
0 0 0 4 5 6 12 8 3 8 12 10 4 1 2 4 3 -1 0 5 3 1 1 1 7 9 6 8 8 6 7 5 5 5 6 7 6 6 6 5 5 4 6 6 7 8 7 8 8 8 9 9 9 9 9 8 6 5 3 1 0 0 1 1 3 5 5 6 5 6 6 6 7 6 6 6 5 6 7 7 6 5 5 5 5 5 6 6 5 4 4 4 4 4 5 5 5
0 1 -2 -0 4 6 9 6 4 9 10 9 11 8 6 5 -0 -2 2 7 9 6 1 -3 2 8 6 6 8 6 6 5 5 6 6 7 7 7 7 6 6 4 5 6 5 6 6 6 8 7 8 9 9 10 10 9 7 5 3 1 0 1 2 2 2 4 5 6 6 6 6 5 6 6 6 6 6 7 7 6 5 5 5 4 5 6 6 6 5 4 4 4 4 3 4 4 4
4 1 -3 -1 2 3 8 6 1 7 8 7 14 16 11 5 -1 0 5 10 14 8 2 -1 -1 6 6 5 8 8 7 5 4 6 6 7 7 7 7 6 6 5 5 6 6 6 6 7 8 8 8 8 9 9 10 9 7 5 3 1 0 1 2 2 3 4 5 6 7 5 5 5 5 5 5 6 7 7 7 6 5 5 4 4 5 5 5 5 5 5 4 4 4 4 4 4 4
6 4 -2 -2 0 -0 7 8 1 5 8 4 12 19 13 6 3 2 5 13 19 10 0 -0 -0 3 5 5 7 8 10 9 6 6 5 7 8 7 8 7 6 6 5 6 6 6 6 6 7 8 9 8 8 9 10 9 7 4 3 1 0 1 2 2 3 5 6 6 5 4 4 4 4 5 6 7 7 6 6 5 4 4 4 4 4 4 4 4 5 5 4 4 5 5 5 4 4
6 5 2 0 -2 -3 3 6 4 6 9 3 7 19 14 8 9 5 1 5 13 11 2 -0 2 2 2 3 6 6 10 13 9 7 6 5 7 7 7 7 6 6 6 6 6 6 5 5 6 7 9 9 9 9 9 9 7 5 3 1 0 2 2 3 3 5 6 4 3 4 5 4 4 6 6 6 6 6 5 4 4 4 4 4 4 4 4 4 5 4 4 4 4 5 4 4 4
7 5 4 4 2 1 1 2 4 7 11 6 5 16 15 9 12 11 6 3 5 9 5 1 1 1 0 1 4 2 5 11 11 9 9 7 7 6 6 8 7 6 6 6 5 5 5 5 5 5 7 9 9 9 9 9 8 6 4 2 1 2 2 2 3 4 4 4 5 6 5 5 5 5 5 5 5 5 5 4 4 3 4 4 4 4 5 5 4 4 4 4 5 4 4 4 4
6 6 5 5 4 4 4 1 0 5 10 6 4 14 11 6 14 17 14 10 3 5 8 5 2 1 -2 -3 -0 0 1 4 4 5 8 9 9 7 6 7 8 8 6 6 5 4 5 5 5 5 6 7 8 8 8 8 8 6 4 3 2 3 3 3 3 3 4 5 6 6 5 5 5 5 5 5 5 5 4 4 3 4 4 4 5 5 4 4 4 4 4 5 5 4 4 4 4
4 5 6 6 1 -3 1 1 -2 2 10 8 3 9 9 4 11 15 16 17 8 4 6 7 7 6 3 -1 -2 -2 1 3 2 -0 2 7 10 10 8 6 6 8 7 6 6 4 5 5 5 5 6 6 8 9 9 9 8 7 5 3 2 3 3 4 4 4 4 4 5 5 5 5 5 5 5 4 4 4 4 3 3 4 4 4 5 4 4 4 4 4 5 4 4 4 5 5 4
5 3 4 6 4 1 1 0 -2 -3 2 11 6 3 10 8 7 9 10 15 15 11 8 5 6 9 13 16 12 5 3 2 2 -0 -3 1 7 10 10 7 5 7 7 6 7 6 6 6 5 6 5 5 6 7 9 10 10 9 8 6 4 4 4 4 4 4 4 4 4 5 5 4 4 4 4 4 4 4 3 3 4 4 4 4 4 4 4 4 4 5 4 4 5 5 5 5 5
8 4 4 5 7 7 3 -0 1 -4 -7 7 8 3 12 9 -1 3 7 9 13 17 17 12 6 4 8 16 18 16 11 3 2 4 1 1 5 8 11 9 6 5 6 7 7 7 6 7 7 6 5 4 4 5 6 8 10 9 8 8 7 7 6 5 4 3 4 4 4 4 4 4 4 3 3 4 5 4 4 4 4 3 3 3 4 4 4 4 4 4 4 4 5 5 5 5 5
8 5 5 6 8 8 5 3 2 0 -4 -3 -0 2 13 12 -1 1 6 5 7 12 16 16 15 13 11 11 11 12 11 7 7 7 7 7 6 6 9 11 8 5 6 7 6 6 6 6 7 7 6 5 5 5 4 5 8 9 8 9 8 8 8 6 4 3 2 3 3 3 3 3 3 3 4 5 5 4 4 4 3 3 2 3 4 4 4 4 4 3 3 4 4 4 4 4 4
7 8 6 4 8 6 7 8 2 6 7 -2 -5 -4 7 17 10 5 6 5 4 5 7 9 12 15 16 16 15 12 10 8 7 4 5 10 10 5 5 9 10 7 5 6 6 6 5 5 6 6 6 6 5 6 5 5 5 7 8 8 9 9 9 8 7 4 2 2 2 2 3 4 5 6 6 6 5 5 4 4 3 3 3 4 4 4 4 4 4 3 3 3 3 3 3 3 4
4 6 5 2 7 5 5 8 4 9 9 2 -0 -2 7 15 4 -2 3 6 6 6 7 6 6 8 11 16 19 20 20 16 13 9 5 8 10 7 3 5 9 8 6 6 5 5 5 5 5 5 5 6 5 5 6 6 5 6 6 7 8 8 9 9 9 7 5 4 4 4 4 4 6 7 7 7 6 6 5 4 3 3 4 4 4 4 4 4 4 3 3 3 3 3 3 3 3
3 3 2 0 3 4 4 5 5 8 4 2 2 0 10 9 -8 -10 -2 3 8 8 9 9 6 5 6 7 5 4 10 15 17 19 17 15 16 14 8 4 4 3 3 2 -1 -1 4 7 6 6 6 4 4 5 5 5 6 6 6 6 6 7 8 9 9 9 8 6 4 3 3 3 4 5 6 7 7 6 5 5 4 4 4 4 4 3 4 4 3 3 3 3 3 3 3 3 3
2 1 1 1 4 5 7 6 6 6 3 3 2 2 10 6 -3 0 -1 1 8 7 8 11 7 6 5 3 -1 -5 -2 2 4 8 11 13 15 17 18 15 11 7 3 -0 -3 -2 3 7 7 7 7 5 4 4 4 5 5 5 5 6 6 7 8 9 9 9 9 8 7 5 4 4 3 3 5 6 7 7 7 6 5 4 4 4 3 3 3 3 3 3 2 2 3 2 3 3 3
12 12 9 8 7 7 8 10 9 8 7 6 3 7 13 7 2 2 -2 2 9 8 8 10 8 7 7 5 5 5 6 6 4 3 4 4 4 6 10 13 15 16 13 9 6 5 6 7 6 6 8 7 6 5 4 4 5 4 5 5 6 7 8 8 9 9 9 9 8 7 6 5 3 3 4 5 5 7 8 7 5 4 4 4 3 2 2 2 2 2 2 2 3 2 2 3 4
8 8 10 7 4 2 3 6 5 3 6 7 6 7 6 3 3 1 -1 6 11 10 8 8 10 8 6 6 6 7 8 8 10 10 9 8 8 6 5 5 8 11 14 15 14 11 9 9 8 7 8 8 8 8 5 4 4 4 4 4 5 6 7 8 8 9 9 8 8 8 7 6 5 4 4 5 5 5 7 7 6 5 4 3 2 2 2 2 2 2 2 2 3 3 3 3 4
5 2 3 6 9 9 8 9 7 5 5 5 6 6 -0 2 6 -0 -1 5 11 16 13 9 10 10 8 9 7 7 8 7 9 11 11 11 10 11 11 10 10 9 11 13 14 14 13 12 10 10 10 9 10 11 7 5 4 4 5 4 4 5 6 7 7 7 8 9 9 9 8 7 7 6 5 4 4 4 6 7 6 6 4 4 4 4 3 3 3 3 3 3 3 3 3 3 4
7 5 3 6 8 9 7 7 7 6 8 7 5 4 -0 4 7 -0 0 7 10 17 20 14 10 9 9 10 9 10 9 7 7 7 8 9 9 9 10 10 11 10 10 11 13 14 16 16 15 13 12 12 13 13 12 9 6 5 5 5 4 4 3 4 5 5 6 7 8 8 7 7 6 5 5 4 4 4 6 7 7 6 6 6 5 5 4 4 3 3 3 3 3 3 4 5 5
2 2 3 4 5 5 4 3 3 3 7 8 5 4 3 3 3 -1 1 6 6 7 12 13 12 10 8 7 7 8 8 7 6 5 6 8 9 10 10 10 11 11 11 10 9 10 11 14 16 17 16 15 14 14 15 15 10 6 5 5 5 4 4 3 3 4 4 5 6 6 6 6 6 6 6 5 5 5 5 6 7 7 7 6 6 5 5 4 4 4 4 3 4 4 5 6 7
2 -1 -1 -3 -1 5 7 7 10 10 11 10 5 6 8 3 -0 -1 -0 5 7 4 3 6 10 10 8 7 5 5 8 9 9 8 8 7 7 8 9 10 10 10 11 10 10 8 7 8 10 12 15 16 16 15 16 17 15 11 8 6 6 5 4 5 4 4 5 5 5 5 6 6 6 6 6 6 5 6 6 6 6 6 6 6 6 5 5 4 5 4 4 5 5 5 5 6 7
8 3 -1 -6 -9 -5 -0 1 3 4 6 7 6 6 5 1 0 1 3 6 8 6 4 7 11 13 14 14 12 9 8 7 7 8 8 7 6 5 5 6 6 7 8 9 10 11 10 9 8 7 8 10 13 15 15 16 17 15 13 10 7 6 5 4 4 4 5 5 5 5 5 6 6 7 8 7 6 7 6 6 5 5 5 5 5 5 5 5 5 5 5 5 5 5 6 7 7
17 16 14 11 8 6 5 1 -1 -1 3 6 9 11 4 -1 2 -0 -4 1 4 3 4 7 11 14 16 15 14 12 10 8 7 6 4 5 5 5 5 5 5 6 7 7 8 10 11 11 11 10 9 8 8 10 11 14 15 15 16 14 10 7 5 4 4 4 4 4 4 5 5 6 7 8 8 7 7 7 6 6 6 5 5 5 5 5 5 5 5 5 5 5 6 7 8 8 8
Height
5873 5874 5876 5877 5877 5878 5879 5880 5880 5881 5881 5881 5881 5882 5882 5882 5882 5882 5882 5882 5882 5882 5882 5883 5883 5883 5882 5882 5883 5883 5883 5883 5882 5882 5883 5883 5883 5882 5882 5883 5883 5884 5885 5885 5886 5887 5888 5889 5890 5890 5890 5891 5891 5891 5891 5892 5891 5891 5891 5892 5892 5892 5892 5893 5893 5894 5894 5894 5895 5895 5895 5895 5895 5895 5895 5894 5894 5894 5894 5893 5893 5893 5893 5893 5893 5893 5893 5893 5892 5892 5891 5891 5891 5891 5890 5890 5890
5872 5873 5875 5876 5876 5877 5879 5879 5880 5880 5880 5880 5880 5881 5881 5881 5882 5882 5882 5882 5882 5882 5882 5883 5883 5883 5883 5883 5883 5884 5884 5884 5883 5883 5883 5884 5884 5884 5884 5884 5884 5885 5886 5886 5887 5887 5889 5889 5890 5890 5891 5891 5892 5892 5892 5892 5892 5892 5892 5892 5893 5893 5893 5894 5894 5894 5895 5895 5895 5895 5895 5895 5895 5895 5895 5894 5894 5894 5894 5894 5894 5894 5893 5893 5893 5893 5893 5893 5892 5892 5892 5891 5891 5891 5891 5890 5890
5871 5872 5874 5875 5875 5877 5878 5878 5879 5879 5879 5879 5880 5881 5881 5881 5882 5882 5882 5882 5882 5882 5882 5883 5883 5883 5883 5883 5884 5885 5885 5885 5885 5884 5884 5885 5885 5885 5885 5885 5886 5886 5887 5887 5888 5888 5889 5889 5890 5890 5891 5892 5892 5892 5893 5893 5893 5893 5893 5893 5893 5894 5894 5895 5895 5895 5895 5895 5896 5896 5896 5896 5895 5895 5895 5895 5895 5894 5894 5894 5894 5894 5894 5893 5893 5893 5893 5893 5892 5892 5892 5892 5891 5891 5891 5891 5890
5871 5872 5873 5874 5875 5876 5877 5878 5878 5878 5878 5878 5879 5880 5881 5881 5882 5882 5882 5882 5881 5882 5882 5883 5884 5884 5883 5883 5884 5885 5885 5886 5886 5885 5885 5886 5886 5886 5886 5887 5887 5887 5888 5888 5888 5889 5889 5890 5890 5891 5891 5892 5892 5893 5893 5893 5894 5894 5894 5894 5894 5895 5895 5895 5895 5896 5896 5896 5896 5896 5896 5896 5896 5896 5896 5895 5895 5895 5895 5894 5894 5894 5894 5894 5893 5893 5893 5893 5893 5893 5892 5892 5892 5891 5891 5891 5891
5870 5871 5872 5873 5874 5875 5876 5877 5877 5877 5877 5877 5879 5879 5880 5881 5882 5882 5882 5881 5881 5881 5882 5883 5884 5884 5884 5883 5884 5885 5886 5886 5886 5886 5886 5886 5887 5887 5887 5888 5888 5888 5889 5889 5889 5889 5890 5890 5891 5891 5892 5892 5893 5893 5893 5894 5894 5895 5895 5895 5895 5896 5896 5896 5896 5897 5897 5897 5897 5897 5897 5897 5897 5897 5896 5896 5896 5896 5895 5895 5895 5895 5894 5894 5894 5893 5893 5893 5893 5893 5893 5892 5892 5892 5891 5891 5891
5869 5870 5871 5872 5873 5874 5875 5875 5875 5876 5877 5877 5878 5879 5879 5881 5881 5881 5881 5881 5881 5881 5882 5883 5884 5884 5884 5883 5884 5885 5886 5887 5887 5886 5886 5887 5887 5888 5888 5889 5889 5889 5889 5890 5890 5890 5890 5891 5891 5892 5892 5893 5893 5893 5894 5894 5895 5895 5896 5896 5896 5896 5897 5897 5897 5897 5898 5898 5897 5897 5897 5897 5897 5897 5897 5897 5896 5896 5896 5896 5895 5895 5895 5895 5894 5894 5894 5894 5894 5893 5893 5893 5892 5892 5892 5892 5891
5868 5870 5871 5872 5872 5873 5874 5874 5874 5875 5876 5876 5878 5878 5878 5880 5880 5881 5881 5881 5881 5881 5881 5882 5883 5884 5884 5884 5884 5885 5886 5887 5887 5887 5887 5887 5888 5889 5889 5889 5890 5890 5890 5890 5890 5891 5891 5891 5892 5892 5893 5893 5894 5894 5894 5895 5895 5896 5896 5896 5897 5897 5897 5898 5898 5898 5898 5898 5898 5898 5898 5898 5897 5897 5897 5897 5897 5897 5896 5896 5896 5896 5895 5895 5895 5895 5895 5894 5894 5894 5894 5893 5893 5893 5892 5892 5892
5867 5869 5870 5870 5871 5872 5872 5873 5873 5875 5875 5876 5877 5877 5878 5879 5880 5881 5881 5881 5881 5881 5881 5882 5883 5884 5884 5884 5884 5884 5886 5887 5887 5887 5887 5888 5888 5889 5889 5890 5890 5890 5890 5891 5891 5891 5892 5892 5892 5893 5893 5894 5894 5894 5895 5895 5896 5896 5897 5897 5898 5898 5898 5898 5898 5899 5899 5899 5898 5898 5898 5898 5898 5898 5898 5898 5897 5897 5897 5897 5897 5896 5896 5896 5896 5896 5895 5895 5895 5895 5894 5894 5894 5893 5893 5893 5893
5866 5867 5868 5869 5870 5871 5872 5872 5873 5874 5874 5875 5876 5876 5877 5878 5879 5880 5880 5881 5881 5881 5881 5882 5883 5883 5884 5884 5884 5884 5885 5886 5887 5887 5887 5888 5889 5889 5890 5890 5890 5891 5891 5891 5892 5892 5892 5892 5892 5893 5893 5894 5894 5895 5895 5895 5896 5897 5897 5898 5898 5898 5899 5899 5899 5899 5899 5899 5899 5899 5899 5899 5898 5898 5898 5898 5898 5898 5898 5897 5897 5897 5897 5897 5897 5896 5896 5896 5896 5895 5895 5895 5894 5894 5894 5894 5893
5864 5865 5867 5868 5870 5871 5871 5871 5871 5872 5873 5874 5875 5876 5877 5877 5878 5879 5880 5880 5880 5881 5881 5881 5882 5883 5884 5885 5884 5884 5885 5885 5886 5887 5887 5888 5889 5890 5890 5890 5890 5891 5891 5892 5892 5892 5893 5893 5893 5893 5894 5894 5895 5895 5896 5896 5896 5897 5898 5898 5899 5899 5899 5899 5899 5899 5899 5899 5899 5900 5899 5899 5899 5899 5899 5898 5898 5898 5898 5898 5898 5898 5898 5897 5897 5897 5897 5896 5896 5896 5895 5895 5895 5895 5894 5894 5894
5863 5864 5866 5867 5868 5869 5868 5868 5869 5871 5873 5873 5874 5875 5876 5877 5878 5879 5879 5880 5880 5880 5881 5881 5882 5883 5884 5884 5885 5885 5885 5885 5886 5887 5887 5888 5889 5890 5890 5890 5891 5891 5891 5892 5892 5893 5893 5893 5893 5893 5894 5894 5895 5896 5896 5897 5897 5898 5898 5899 5899 5899 5899 5899 5899 5899 5899 5900 5900 5900 5900 5900 5899 5899 5899 5899 5899 5899 5899 5899 5898 5898 5898 5898 5898 5897 5897 5897 5896 5896 5896 5896 5895 5895 5895 5895 5894
5861 5863 5864 5865 5867 5867 5866 5866 5868 5871 5871 5871 5873 5875 5876 5877 5878 5879 5879 5880 5880 5880 5880 5881 5881 5882 5884 5884 5885 5885 5885 5885 5886 5886 5887 5888 5889 5890 5890 5890 5891 5891 5891 5892 5892 5893 5893 5894 5894 5894 5894 5895 5896 5896 5897 5897 5898 5898 5899 5899 5899 5899 5899 5899 5899 5899 5900 5900 5900 5900 5900 5900 5900 5900 5899 5899 5899 5899 5899 5899 5899 5899 5899 5899 5898 5898 5897 5897 5897 5897 5896 5896 5896 5896 5895 5895 5895
5860 5862 5862 5864 5865 5865 5865 5867 5869 5868 5868 5871 5873 5874 5876 5877 5878 5878 5879 5879 5880 5880 5880 5880 5881 5882 5883 5884 5885 5885 5885 5885 5886 5886 5887 5887 5888 5889 5890 5891 5891 5891 5892 5892 5892 5893 5894 5894 5894 5894 5894 5895 5896 5896 5897 5898 5898 5898 5899 5899 5899 5900 5900 5899 5900 5900 5900 5900 5900 5900 5900 5900 5900 5900 5900 5900 5900 5900 5900 5900 5900 5900 5899 5899 5899 5899 5898 5898 5897 5897 5897 5897 5897 5896 5896 5895 5895
5859 5860 5861 5863 5863 5863 5865 5867 5868 5866 5868 5872 5873 5874 5875 5876 5877 5878 5878 5879 5879 5880 5879 5879 5880 5881 5882 5884 5885 5885 5885 5885 5886 5886 5887 5887 5888 5889 5890 5891 5891 5891 5892 5892 5892 5893 5894 5894 5895 5895 5895 5895 5896 5896 5897 5898 5898 5898 5899 5899 5899 5900 5900 5900 5900 5900 5900 5900 5900 5901 5901 5900 5900 5900 5900 5900 5900 5900 5900 5900 5900 5900 5900 5899 5899 5899 5899 5898 5898 5898 5897 5897 5897 5897 5896 5895 5895
5857 5858 5860 5862 5862 5863 5865 5866 5866 5865 5869 5873 5872 5873 5874 5875 5876 5877 5878 5878 5879 5879 5879 5879 5879 5880 5882 5883 5884 5885 5885 5885 5886 5886 5886 5887 5888 5889 5889 5890 5891 5891 5891 5892 5892 5893 5893 5894 5895 5895 5895 5895 5896 5896 5897 5898 5898 5899 5899 5899 5899 5899 5900 5900 5900 5900 5900 5900 5901 5901 5901 5901 5900 5900 5900 5900 5900 5900 5900 5900 5900 5900 5900 5900 5899 5899 5899 5898 5898 5898 5898 5897 5897 5897 5896 5895 5894
5856 5857 5859 5860 5861 5863 5863 5864 5863 5864 5870 5872 5871 5872 5873 5875 5876 5876 5877 5877 5878 5879 5879 5878 5879 5879 5881 5882 5883 5884 5885 5885 5886 5886 5886 5887 5887 5888 5889 5890 5891 5891 5891 5892 5892 5892 5893 5893 5894 5895 5895 5895 5896 5896 5897 5898 5898 5899 5899 5899 5899 5899 5900 5900 5900 5900 5900 5901 5901 5901 5901 5901 5901 5901 5901 5901 5901 5900 5900 5900 5900 5900 5900 5899 5899 5899 5898 5898 5898 5898 5898 5897 5897 5896 5896 5895 5894
5855 5856 5858 5858 5860 5861 5860 5861 5862 5866 5871 5870 5869 5871 5872 5874 5875 5875 5876 5876 5877 5878 5878 5878 5878 5879 5880 5881 5882 5883 5884 5885 5885 5886 5886 5886 5887 5888 5888 5889 5890 5890 5890 5891 5892 5892 5892 5893 5893 5894 5894 5895 5895 5896 5897 5897 5898 5899 5899 5899 5899 5900 5900 5900 5900 5900 5900 5901 5901 5901 5901 5901 5901 5901 5901 5901 5901 5900 5900 5900 5900 5900 5899 5899 5899 5898 5898 5898 5898 5898 5897 5897 5897 5896 5895 5894 5894
5852 5854 5856 5857 5859 5858 5857 5860 5863 5866 5869 5868 5868 5870 5871 5873 5873 5874 5875 5875 5876 5877 5877 5878 5878 5878 5879 5880 5880 5881 5883 5884 5885 5885 5885 5886 5886 5887 5888 5889 5889 5890 5890 5890 5891 5891 5892 5892 5892 5893 5894 5894 5895 5896 5896 5897 5898 5898 5899 5899 5899 5900 5900 5900 5900 5900 5900 5901 5901 5901 5901 5901 5901 5901 5901 5901 5900 5900 5900 5900 5899 5899 5899 5898 5898 5898 5898 5898 5897 5897 5897 5897 5896 5895 5895 5894 5894
5851 5852 5854 5856 5856 5855 5857 5862 5863 5865 5867 5867 5868 5869 5870 5871 5872 5873 5874 5875 5875 5876 5877 5877 5877 5878 5878 5878 5879 5879 5881 5882 5883 5884 5884 5885 5886 5886 5887 5888 5889 5889 5890 5890 5890 5891 5891 5891 5891 5892 5893 5893 5894 5895 5896 5896 5897 5898 5899 5899 5899 5900 5900 5900 5900 5900 5901 5901 5901 5901 5901 5901 5901 5901 5901 5900 5900 5900 5900 5899 5899 5899 5898 5898 5898 5898 5897 5897 5897 5897 5896 5896 5895 5895 5894 5894 5893
5848 5850 5853 5853 5853 5854 5857 5861 5862 5864 5866 5867 5867 5867 5869 5870 5871 5872 5873 5874 5874 5875 5876 5876 5877 5877 5877 5877 5877 5878 5879 5880 5881 5882 5883 5884 5885 5885 5886 5887 5888 5888 5889 5890 5890 5890 5890 5891 5891 5891 5892 5893 5893 5894 5895 5896 5896 5897 5898 5899 5899 5900 5900 5900 5900 5900 5900 5901 5901 5901 5901 5901 5901 5901 5900 5900 5900 5899 5899 5899 5899 5898 5898 5898 5897 5897 5897 5897 5896 5896 5896 5895 5895 5894 5893 5893 5892
5846 5849 5850 5850 5851 5853 5857 5860 5862 5863 5864 5865 5866 5866 5868 5869 5869 5870 5872 5872 5873 5875 5876 5875 5876 5876 5876 5877 5877 5877 5878 5878 5879 5881 5882 5882 5883 5884 5885 5886 5887 5887 5888 5889 5890 5890 5890 5890 5890 5891 5891 5892 5893 5893 5894 5895 5895 5896 5897 5898 5898 5899 5899 5899 5900 5900 5900 5900 5900 5901 5901 5900 5900 5900 5900 5900 5899 5899 5899 5898 5898 5898 5897 5897 5897 5897 5896 5896 5896 5895 5895 5894 5894 5893 5893 5892 5891
5845 5847 5847 5848 5850 5853 5857 5859 5860 5861 5862 5863 5864 5866 5867 5866 5867 5869 5870 5871 5873 5874 5875 5874 5875 5875 5875 5875 5876 5876 5877 5878 5878 5879 5880 5881 5882 5883 5884 5885 5886 5886 5887 5888 5889 5889 5890 5890 5890 5890 5891 5891 5892 5893 5893 5894 5895 5895 5896 5897 5898 5898 5899 5899 5899 5899 5900 5900 5900 5900 5900 5900 5900 5900 5899 5899 5899 5898 5898 5898 5898 5897 5897 5897 5896 5896 5896 5895 5895 5894 5894 5893 5893 5892 5892 5891 5890
5843 5845 5846 5847 5850 5852 5855 5857 5857 5858 5859 5861 5863 5864 5864 5864 5866 5867 5869 5870 5871 5873 5873 5874 5874 5874 5875 5874 5875 5875 5876 5877 5877 5878 5879 5880 5881 5882 5883 5883 5885 5885 5886 5887 5888 5889 5889 5890 5890 5890 5890 5890 5891 5892 5893 5894 5894 5895 5895 5896 5897 5898 5898 5899 5899 5899 5900 5900 5900 5900 5900 5900 5899 5899 5899 5898 5898 5897 5897 5897 5897 5896 5896 5896 5895 5895 5895 5894 5894 5893 5893 5892 5892 5891 5891 5890 5889
5841 5843 5844 5846 5847 5850 5853 5854 5855 5855 5857 5859 5861 5861 5862 5863 5864 5866 5867 5868 5870 5871 5872 5873 5873 5874 5874 5874 5874 5874 5874 5875 5876 5877 5877 5878 5879 5880 5881 5882 5883 5884 5885 5886 5887 5888 5888 5889 5889 5889 5889 5890 5890 5891 5892 5893 5893 5894 5895 5895 5896 5897 5898 5898 5898 5899 5899 5899 5899 5899 5899 5899 5898 5898 5898 5897 5897 5897 5896 5896 5896 5896 5895 5895 5895 5894 5894 5893 5893 5892 5892 5891 5891 5890 5890 5889 5888
5839 5840 5842 5844 5845 5848 5850 5852 5852 5853 5855 5857 5858 5859 5861 5862 5863 5865 5865 5866 5868 5870 5870 5871 5872 5873 5873 5873 5873 5873 5873 5874 5875 5876 5877 5877 5878 5879 5880 5881 5882 5883 5884 5885 5886 5887 5887 5888 5889 5889 5889 5889 5890 5890 5891 5892 5893 5893 5894 5895 5896 5896 5897 5897 5898 5898 5898 5898 5898 5898 5898 5898 5897 5897 5897 5896 5896 5896 5896 5895 5895 5895 5894 5894 5894 5893 5893 5892 5892 5891 5891 5890 5890 5889 5889 5888 5887
5838 5838 5839 5841 5843 5845 5848 5849 5850 5851 5853 5854 5856 5857 5859 5861 5863 5863 5863 5865 5867 5867 5868 5869 5870 5872 5872 5873 5873 5872 5873 5873 5873 5875 5875 5876 5876 5877 5878 5879 5880 5882 5883 5884 5884 5885 5886 5887 5888 5888 5889 5889 5889 5890 5890 5891 5891 5892 5893 5894 5895 5895 5896 5897 5897 5897 5898 5898 5898 5897 5897 5897 5896 5896 5896 5895 5895 5895 5895 5894 5894 5894 5894 5893 5893 5893 5892 5892 5891 5890 5890 5889 5888 5888 5887 5886 5886
5836 5836 5837 5839 5840 5843 5845 5846 5847 5849 5851 5851 5853 5856 5858 5860 5862 5862 5862 5863 5864 5865 5866 5867 5869 5870 5871 5871 5872 5872 5872 5872 5872 5873 5874 5874 5875 5876 5877 5878 5879 5880 5881 5882 5883 5884 5885 5886 5887 5887 5888 5889 5889 5890 5890 5890 5891 5891 5892 5893 5894 5895 5895 5896 5896 5897 5897 5897 5897 5896 5896 5896 5896 5895 5895 5895 5894 5894 5894 5894 5893 5893 5893 5892 5892 5892 5891 5890 5890 5889 5889 5888 5887 5886 5886 5885 5884
5833 5833 5834 5836 5837 5840 5842 5843 5845 5847 5848 5849 5852 5855 5857 5859 5862 5862 5860 5860 5860 5862 5864 5865 5866 5868 5869 5870 5870 5871 5871 5871 5871 5872 5873 5874 5875 5875 5876 5877 5878 5879 5880 5881 5882 5883 5883 5884 5886 5887 5887 5888 5889 5889 5890 5890 5890 5891 5891 5892 5893 5894 5894 5895 5896 5896 5896 5896 5896 5895 5895 5895 5895 5894 5894 5894 5894 5893 5893 5893 5892 5892 5892 5891 5891 5890 5890 5889 5889 5888 5887 5887 5886 5885 5884 5883 5882
5829 5830 5831 5833 5834 5837 5839 5841 5843 5844 5845 5849 5852 5853 5856 5858 5861 5858 5856 5858 5859 5861 5863 5863 5864 5866 5867 5868 5869 5870 5870 5871 5870 5871 5872 5873 5874 5875 5875 5876 5877 5878 5879 5879 5880 5881 5882 5883 5884 5885 5887 5887 5888 5889 5890 5890 5890 5890 5891 5891 5892 5893 5893 5894 5894 5894 5894 5894 5894 5894 5894 5894 5893 5893 5893 5893 5892 5892 5892 5891 5891 5891 5890 5890 5890 5889 5889 5888 5888 5887 5886 5885 5884 5883 5882 5881 5880
5826 5827 5828 5830 5830 5834 5838 5839 5840 5841 5845 5849 5850 5850 5854 5857 5857 5854 5854 5858 5859 5860 5862 5862 5863 5864 5865 5867 5868 5868 5869 5870 5870 5870 5871 5872 5873 5874 5875 5875 5876 5877 5878 5878 5879 5880 5881 5882 5882 5884 5885 5886 5888 5889 5889 5890 5890 5890 5891 5891 5892 5892 5893 5893 5893 5893 5893 5893 5893 5893 5893 5892 5892 5892 5892 5891 5891 5891 5890 5890 5890 5890 5889 5889 5888 5888 5887 5887 5886 5885 5884 5883 5882 5881 5880 5879 5879
5821 5822 5824 5827 5827 5831 5836 5836 5837 5839 5844 5847 5846 5847 5853 5854 5853 5853 5854 5857 5858 5859 5860 5861 5861 5863 5864 5865 5866 5868 5868 5869 5869 5870 5870 5871 5872 5873 5873 5874 5875 5876 5877 5878 5878 5879 5880 5881 5881 5882 5883 5885 5886 5888 5889 5889 5890 5891 5891 5891 5891 5892 5892 5892 5892 5892 5892 5892 5892 5891 5891 5891 5891 5891 5890 5890 5890 5889 5889 5889 5888 5888 5888 5887 5887 5886 5886 5885 5884 5884 5883 5882 5881 5880 5879 5878 5876
5815 5817 5820 5823 5824 5828 5832 5833 5835 5838 5841 5843 5843 5845 5851 5852 5850 5851 5854 5855 5855 5857 5858 5859 5860 5861 5863 5864 5865 5867 5868 5868 5868 5869 5869 5870 5871 5871 5872 5873 5874 5875 5876 5877 5878 5879 5879 5880 5880 5881 5882 5883 5884 5886 5887 5888 5889 5890 5890 5890 5891 5891 5891 5891 5891 5891 5891 5891 5891 5890 5890 5890 5889 5889 5889 5889 5889 5888 5888 5887 5887 5886 5886 5885 5885 5884 5884 5883 5883 5882 5881 5880 5879 5878 5877 5876 5874
5811 5813 5817 5820 5822 5825 5827 5830 5834 5836 5837 5840 5840 5842 5848 5849 5847 5849 5852 5853 5853 5854 5855 5857 5858 5859 5861 5862 5864 5865 5866 5867 5867 5868 5868 5869 5870 5870 5871 5872 5873 5874 5875 5876 5877 5878 5879 5879 5880 5880 5881 5882 5883 5884 5885 5886 5887 5888 5888 5889 5889 5890 5890 5890 5890 5890 5890 5890 5890 5889 5889 5888 5888 5888 5888 5887 5887 5887 5886 5886 5885 5885 5884 5884 5883 5882 5882 5881 5880 5880 5879 5878 5877 5875 5874 5873 5871
5807 5809 5813 5816 5819 5822 5824 5828 5833 5833 5834 5836 5837 5839 5844 5847 5846 5847 5850 5850 5850 5851 5853 5855 5856 5858 5859 5861 5862 5863 5865 5865 5866 5866 5867 5868 5869 5870 5870 5871 5872 5873 5874 5875 5876 5877 5878 5878 5879 5879 5880 5881 5882 5883 5883 5884 5885 5886 5886 5887 5887 5887 5888 5888 5888 5888 5888 5888 5888 5888 5887 5887 5887 5886 5886 5886 5885 5885 5885 5884 5884 5883 5882 5882 5881 5880 5880 5879 5878 5877 5877 5875 5874 5873 5872 5870 5869
5806 5807 5811 5814 5816 5820 5822 5825 5830 5830 5830 5832 5833 5836 5842 5844 5844 5846 5847 5847 5848 5849 5850 5852 5854 5856 5857 5859 5860 5861 5862 5863 5863 5864 5865 5867 5868 5868 5869 5870 5871 5872 5872 5873 5874 5875 5876 5877 5877 5878 5879 5880 5880 5881 5882 5882 5883 5883 5884 5884 5884 5885 5885 5886 5886 5886 5886 5886 5886 5886 5885 5885 5885 5885 5884 5884 5884 5883 5883 5882 5882 5881 5881 5880 5879 5878 5878 5877 5876 5875 5874 5873 5872 5870 5869 5868 5866
5804 5805 5809 5812 5814 5817 5819 5821 5827 5826 5825 5828 5830 5833 5838 5841 5841 5843 5845 5845 5846 5847 5848 5850 5852 5854 5855 5856 5857 5859 5860 5861 5860 5861 5864 5865 5866 5867 5867 5868 5869 5870 5871 5872 5872 5873 5874 5875 5875 5876 5877 5878 5879 5880 5880 5881 5881 5881 5882 5882 5882 5883 5883 5883 5884 5884 5884 5884 5884 5884 5883 5883 5883 5883 5882 5882 5882 5881 5881 5880 5880 5879 5878 5878 5877 5876 5875 5874 5873 5872 5871 5870 5869 5867 5866 5864 5862
5802 5802 5805 5809 5811 5814 5815 5818 5822 5822 5821 5826 5828 5830 5834 5837 5839 5840 5842 5842 5842 5844 5846 5848 5850 5851 5852 5854 5855 5856 5858 5858 5858 5860 5863 5864 5864 5865 5866 5867 5867 5868 5869 5869 5870 5871 5872 5873 5874 5874 5875 5876 5877 5878 5878 5879 5879 5879 5879 5880 5880 5881 5881 5881 5881 5881 5881 5881 5881 5881 5881 5881 5880 5880 5880 5879 5879 5879 5878 5878 5877 5877 5876 5875 5874 5874 5873 5872 5871 5869 5868 5867 5865 5864 5862 5860 5859
5799 5799 5802 5806 5807 5809 5812 5814 5818 5819 5819 5823 5825 5826 5830 5834 5836 5837 5838 5839 5839 5842 5844 5846 5847 5848 5850 5851 5853 5854 5855 5856 5857 5859 5861 5862 5863 5863 5864 5865 5866 5866 5867 5868 5869 5869 5870 5871 5872 5872 5873 5874 5875 5876 5876 5876 5877 5877 5877 5878 5878 5879 5879 5880 5879 5879 5879 5879 5879 5879 5878 5878 5878 5877 5877 5877 5877 5876 5875 5875 5874 5874 5873 5872 5872 5871 5870 5869 5868 5867 5865 5863 5862 5860 5858 5856 5855
5795 5796 5798 5801 5804 5806 5807 5809 5814 5816 5816 5819 5821 5822 5826 5830 5833 5835 5836 5836 5838 5840 5842 5843 5844 5845 5847 5850 5851 5852 5853 5854 5855 5857 5859 5860 5860 5861 5862 5863 5864 5864 5865 5866 5867 5867 5868 5869 5869 5869 5870 5872 5873 5873 5874 5874 5874 5874 5875 5876 5876 5877 5878 5878 5877 5877 5877 5877 5876 5876 5875 5875 5875 5875 5874 5874 5874 5873 5873 5872 5871 5870 5870 5869 5868 5868 5867 5866 5865 5863 5862 5860 5859 5857 5855 5853 5851
5789 5792 5794 5796 5800 5802 5803 5805 5810 5815 5814 5815 5818 5818 5822 5827 5829 5832 5834 5834 5836 5838 5839 5840 5841 5842 5845 5847 5848 5849 5850 5852 5853 5855 5857 5858 5858 5859 5861 5861 5861 5862 5863 5864 5865 5865 5866 5866 5866 5867 5868 5869 5870 5871 5871 5872 5872 5873 5874 5874 5874 5875 5875 5875 5875 5875 5874 5873 5873 5873 5873 5872 5872 5872 5872 5872 5871 5871 5870 5869 5868 5867 5866 5866 5865 5864 5863 5862 5861 5860 5858 5857 5856 5854 5852 5849 5848
5784 5787 5790 5793 5796 5798 5800 5801 5806 5812 5812 5812 5813 5813 5817 5823 5826 5829 5831 5831 5833 5835 5836 5837 5839 5840 5842 5844 5845 5847 5848 5850 5850 5852 5854 5855 5856 5858 5858 5859 5859 5860 5861 5862 5862 5862 5863 5863 5864 5864 5865 5867 5868 5868 5869 5869 5870 5871 5872 5872 5872 5873 5873 5873 5873 5872 5871 5870 5870 5870 5870 5870 5870 5869 5869 5868 5868 5867 5867 5866 5865 5864 5863 5862 5861 5860 5860 5859 5858 5857 5855 5854 5852 5851 5849 5846 5844
5780 5783 5787 5790 5792 5795 5797 5798 5802 5808 5809 5809 5810 5809 5812 5820 5824 5826 5828 5828 5830 5833 5833 5834 5836 5837 5839 5841 5843 5845 5847 5848 5848 5849 5851 5852 5854 5855 5856 5857 5857 5859 5859 5859 5859 5859 5860 5861 5862 5862 5863 5864 5865 5866 5866 5866 5867 5868 5869 5870 5870 5870 5870 5870 5870 5869 5868 5868 5868 5867 5867 5867 5867 5867 5866 5865 5865 5864 5863 5863 5862 5861 5860 5859 5858 5857 5856 5855 5855 5854 5852 5851 5849 5848 5846 5844 5841
5777 5781 5785 5787 5789 5791 5794 5795 5799 5803 5805 5805 5807 5807 5808 5815 5822 5823 5825 5826 5827 5829 5830 5831 5833 5834 5836 5838 5840 5843 5844 5845 5846 5846 5848 5850 5851 5851 5853 5854 5855 5855 5856 5855 5856 5857 5858 5859 5860 5860 5861 5862 5863 5863 5864 5864 5865 5866 5866 5867 5867 5868 5868 5868 5867 5866 5865 5865 5865 5865 5865 5864 5864 5864 5863 5862 5862 5861 5860 5859 5858 5857 5856 5856 5855 5854 5853 5852 5851 5850 5849 5848 5846 5844 5842 5840 5838
5775 5779 5782 5783 5787 5789 5791 5793 5794 5798 5801 5802 5804 5806 5806 5810 5819 5822 5822 5823 5824 5826 5828 5829 5830 5832 5834 5836 5837 5839 5841 5842 5843 5843 5844 5847 5848 5848 5850 5851 5851 5851 5851 5852 5854 5855 5856 5857 5857 5858 5858 5860 5860 5860 5861 5861 5861 5862 5863 5863 5864 5865 5865 5865 5864 5863 5863 5863 5863 5863 5862 5861 5861 5860 5860 5859 5859 5858 5857 5855 5854 5853 5853 5852 5852 5850 5850 5849 5848 5847 5846 5844 5842 5840 5838 5837 5834
5772 5775 5778 5781 5785 5787 5788 5789 5790 5793 5797 5798 5802 5806 5804 5805 5815 5819 5819 5820 5822 5823 5825 5826 5827 5829 5831 5832 5833 5835 5837 5839 5839 5839 5840 5843 5845 5845 5846 5847 5847 5848 5848 5850 5851 5852 5852 5854 5855 5855 5856 5857 5857 5857 5858 5858 5858 5859 5860 5860 5861 5862 5862 5861 5861 5860 5860 5859 5859 5860 5859 5858 5857 5857 5857 5856 5856 5855 5854 5852 5851 5850 5849 5849 5848 5847 5846 5845 5845 5843 5842 5840 5839 5836 5834 5832 5831
5768 5771 5773 5777 5781 5782 5784 5785 5787 5790 5792 5796 5801 5804 5801 5801 5809 5816 5817 5818 5820 5822 5823 5823 5824 5826 5828 5829 5829 5831 5833 5834 5835 5836 5836 5838 5841 5842 5842 5843 5844 5845 5846 5847 5848 5848 5849 5850 5851 5852 5853 5853 5853 5854 5855 5855 5855 5855 5856 5857 5858 5858 5858 5858 5857 5857 5857 5856 5856 5856 5856 5855 5854 5854 5854 5853 5853 5852 5851 5849 5848 5847 5846 5846 5845 5843 5842 5841 5841 5839 5838 5836 5834 5832 5830 5828 5826
5764 5768 5769 5772 5775 5778 5780 5782 5785 5786 5788 5793 5798 5800 5799 5797 5803 5812 5815 5817 5819 5819 5820 5820 5820 5822 5824 5825 5826 5828 5829 5830 5831 5832 5832 5833 5836 5838 5839 5839 5841 5842 5843 5844 5845 5845 5845 5846 5847 5848 5849 5849 5850 5851 5851 5852 5852 5852 5853 5854 5854 5854 5855 5854 5854 5854 5854 5853 5852 5852 5852 5852 5851 5851 5851 5850 5849 5849 5848 5846 5844 5844 5843 5842 5841 5839 5838 5837 5836 5835 5834 5832 5830 5828 5826 5823 5822
5761 5764 5766 5769 5771 5775 5777 5779 5781 5782 5785 5789 5792 5796 5797 5794 5799 5808 5814 5817 5817 5817 5818 5818 5817 5818 5820 5822 5823 5824 5825 5826 5827 5828 5829 5830 5831 5834 5835 5837 5838 5839 5840 5841 5841 5842 5842 5842 5843 5843 5844 5845 5846 5846 5847 5848 5848 5848 5849 5849 5850 5850 5850 5851 5851 5850 5850 5850 5849 5849 5849 5848 5848 5848 5848 5847 5846 5845 5844 5843 5841 5840 5839 5838 5837 5835 5834 5833 5831 5830 5829 5827 5825 5823 5821 5819 5817
5755 5759 5763 5766 5767 5770 5772 5774 5776 5778 5782 5786 5787 5791 5794 5793 5797 5804 5810 5814 5814 5814 5815 5815 5815 5815 5817 5819 5820 5821 5821 5823 5824 5825 5826 5827 5827 5829 5831 5833 5834 5835 5836 5838 5838 5838 5838 5839 5839 5840 5840 5840 5841 5841 5842 5843 5844 5844 5845 5844 5844 5845 5846 5846 5846 5846 5846 5846 5846 5845 5845 5845 5845 5845 5844 5844 5842 5841 5840 5839 5837 5836 5835 5834 5832 5830 5829 5828 5827 5825 5824 5823 5820 5818 5817 5814 5813
5752 5756 5759 5761 5761 5762 5764 5768 5771 5775 5779 5782 5782 5786 5790 5793 5796 5798 5804 5809 5810 5810 5812 5812 5812 5812 5813 5815 5817 5818 5819 5820 5821 5822 5823 5824 5824 5825 5827 5828 5830 5831 5833 5833 5834 5835 5835 5835 5836 5836 5836 5836 5836 5836 5837 5838 5839 5839 5840 5840 5840 5840 5841 5841 5841 5841 5841 5841 5841 5841 5841 5840 5840 5840 5840 5839 5837 5837 5836 5834 5833 5831 5830 5829 5827 5826 5825 5823 5822 5821 5819 5818 5816 5814 5812 5809 5808
5752 5754 5755 5755 5755 5758 5762 5766 5770 5773 5776 5778 5779 5781 5786 5791 5794 5795 5798 5804 5806 5807 5808 5809 5809 5809 5810 5811 5813 5815 5817 5817 5818 5819 5820 5821 5821 5822 5823 5824 5825 5827 5828 5829 5830 5830 5831 5831 5832 5832 5832 5832 5832 5832 5832 5833 5834 5834 5835 5835 5835 5836 5836 5836 5836 5836 5837 5836 5836 5836 5836 5835 5835 5835 5835 5833 5832 5832 5831 5830 5828 5827 5825 5824 5823 5821 5820 5818 5817 5816 5815 5813 5811 5809 5807 5805 5803
5744 5746 5746 5747 5752 5758 5760 5762 5766 5768 5769 5771 5774 5777 5783 5788 5790 5792 5794 5798 5802 5803 5804 5805 5806 5806 5807 5808 5809 5811 5813 5814 5815 5816 5816 5817 5818 5818 5819 5820 5821 5822 5823 5824 5825 5826 5827 5827 5827 5828 5828 5828 5828 5828 5828 5829 5829 5829 5830 5830 5831 5831 5831 5832 5832 5832 5831 5831 5831 5831 5831 5830 5830 5830 5829 5827 5826 5826 5826 5825 5823 5822 5820 5819 5817 5816 5815 5813 5812 5811 5810 5808 5805 5803 5802 5800 5798
5736 5736 5736 5741 5749 5752 5753 5755 5758 5760 5761 5765 5770 5774 5779 5783 5785 5788 5791 5794 5798 5799 5800 5801 5802 5803 5804 5805 5806 5807 5808 5809 5811 5812 5813 5813 5814 5815 5815 5816 5817 5818 5819 5820 5820 5821 5822 5822 5823 5823 5824 5824 5824 5824 5825 5825 5825 5825 5825 5825 5826 5826 5827 5827 5827 5827 5826 5826 5826 5826 5826 5825 5824 5824 5823 5821 5819 5819 5820 5820 5818 5816 5815 5813 5812 5811 5809 5808 5806 5805 5804 5802 5799 5797 5796 5794 5792
5730 5730 5735 5742 5744 5744 5747 5750 5752 5754 5756 5761 5767 5771 5774 5779 5782 5784 5787 5791 5793 5795 5796 5797 5798 5800 5800 5801 5803 5803 5804 5805 5806 5808 5809 5810 5810 5811 5812 5812 5813 5814 5815 5816 5816 5817 5817 5818 5819 5819 5820 5820 5820 5820 5820 5820 5820 5821 5821 5821 5821 5821 5821 5822 5822 5821 5821 5820 5821 5821 5820 5819 5818 5818 5817 5816 5814 5814 5815 5814 5813 5811 5809 5808 5807 5806 5804 5802 5801 5799 5798 5796 5793 5791 5790 5788 5786
5723 5729 5735 5738 5738 5740 5744 5746 5749 5752 5754 5758 5764 5767 5769 5774 5779 5782 5784 5788 5789 5789 5792 5794 5795 5796 5797 5797 5798 5799 5800 5801 5802 5804 5805 5806 5807 5808 5809 5809 5810 5810 5811 5812 5812 5813 5813 5813 5814 5815 5815 5816 5816 5816 5816 5816 5816 5816 5816 5816 5815 5815 5815 5815 5816 5815 5815 5815 5815 5815 5814 5814 5813 5812 5812 5810 5809 5808 5808 5808 5807 5805 5804 5803 5802 5800 5798 5796 5795 5793 5792 5790 5787 5786 5784 5782 5780
5717 5724 5727 5730 5732 5736 5739 5743 5746 5749 5751 5754 5758 5761 5765 5771 5776 5779 5782 5785 5785 5785 5787 5790 5791 5792 5793 5794 5794 5795 5796 5797 5798 5800 5801 5802 5803 5804 5805 5805 5806 5807 5807 5808 5808 5809 5809 5809 5810 5810 5810 5811 5811 5811 5812 5812 5812 5812 5811 5811 5810 5810 5809 5809 5809 5809 5809 5809 5809 5809 5809 5808 5808 5807 5806 5804 5803 5803 5802 5801 5800 5799 5798 5797 5796 5794 5793 5791 5788 5786 5785 5783 5781 5780 5778 5776 5774
5713 5717 5719 5722 5725 5727 5732 5736 5738 5741 5744 5748 5751 5754 5762 5768 5772 5776 5779 5780 5781 5781 5782 5784 5787 5788 5789 5790 5790 5791 5792 5793 5794 5796 5797 5798 5799 5800 5801 5802 5802 5803 5803 5804 5804 5805 5805 5805 5805 5805 5805 5805 5806 5806 5806 5806 5806 5806 5806 5806 5805 5804 5803 5803 5803 5803 5804 5804 5803 5803 5803 5802 5802 5801 5800 5799 5797 5797 5796 5795 5794 5793 5792 5791 5790 5788 5787 5785 5783 5780 5778 5776 5775 5774 5772 5770 5768
5712 5714 5716 5720 5721 5723 5726 5728 5733 5737 5741 5745 5747 5749 5758 5765 5768 5771 5775 5777 5778 5778 5778 5779 5781 5782 5783 5785 5786 5787 5788 5789 5790 5792 5793 5794 5795 5796 5797 5798 5799 5799 5800 5800 5800 5801 5801 5801 5801 5801 5801 5801 5800 5800 5800 5801 5801 5801 5801 5801 5800 5800 5799 5798 5798 5798 5798 5798 5797 5797 5796 5796 5796 5795 5794 5793 5792 5791 5790 5789 5788 5787 5786 5784 5783 5782 5780 5779 5776 5774 5772 5770 5769 5768 5766 5764 5762